Location: Rounton
(54.4000°N, 1.3500°W)
Time: 22:01:59
(UTC+01:00)

YAOGAN 20A - Pass Details

Date: 02 July 2022
Orbit: 891 x 1288 km, 63.4° (Epoch: 18 August)

Event Time Altitude Azimuth Distance (km) Brightness Sun altitude
Rises 23:07:28 0° 301° (WNW) 3,729 9.1 -8.3°
Reaches altitude 10° 23:10:04 10° 307° (NW) 2,831 8.5 -8.5°
Maximum altitude 23:16:36 51° 23° (NNE) 1,374 6.0 -8.9°
Drops below altitude 10° 23:23:48 10° 98° (E) 3,109 7.2 -9.3°
Sets 23:26:46 0° 103° (ESE) 4,123 7.8 -9.5°
